TimeCDT,TemperatureF,Dew PointF,Humidity,Sea Level PressureIn,VisibilityMPH,Wind Direction,Wind SpeedMPH,Gust SpeedMPH,PrecipitationIn,Events,Conditions,WindDirDegrees,DateUTC
12:53 AM,70.0,63.0,78,29.94,10.0,Calm,Calm,-,N/A,,Clear,0,2013-07-20 05:53:00
1:53 AM,66.9,64.0,90,29.93,10.0,South,3.5,-,N/A,,Clear,170,2013-07-20 06:53:00
2:53 AM,66.9,63.0,87,29.93,10.0,Calm,Calm,-,N/A,,Clear,0,2013-07-20 07:53:00
3:53 AM,64.9,63.0,93,29.94,10.0,WSW,4.6,-,N/A,,Clear,240,2013-07-20 08:53:00
4:53 AM,66.0,63.0,90,29.92,10.0,West,6.9,-,N/A,,Clear,260,2013-07-20 09:53:00
5:53 AM,66.0,62.1,87,29.90,10.0,West,4.6,-,N/A,,Clear,280,2013-07-20 10:53:00
6:53 AM,62.1,60.1,93,29.91,6.0,Calm,Calm,-,N/A,,Clear,0,2013-07-20 11:53:00
7:53 AM,66.9,63.0,87,29.92,9.0,Calm,Calm,-,N/A,,Clear,0,2013-07-20 12:53:00
8:53 AM,71.1,63.0,75,29.91,10.0,East,3.5,-,N/A,,Clear,100,2013-07-20 13:53:00
9:53 AM,77.0,64.0,64,29.91,10.0,South,4.6,-,N/A,,Clear,170,2013-07-20 14:53:00
10:53 AM,81.0,62.1,52,29.91,10.0,ESE,3.5,-,N/A,,Clear,110,2013-07-20 15:53:00
11:53 AM,84.9,62.1,46,29.91,10.0,East,6.9,-,N/A,,Clear,90,2013-07-20 16:53:00
12:53 PM,87.1,60.1,40,29.90,10.0,SSE,8.1,-,N/A,,Clear,160,2013-07-20 17:53:00
1:53 PM,90.0,57.9,34,29.88,10.0,ESE,11.5,-,N/A,,Clear,120,2013-07-20 18:53:00
2:53 PM,90.0,57.9,34,29.86,10.0,Variable,5.8,-,N/A,,Clear,0,2013-07-20 19:53:00
3:53 PM,90.0,59.0,35,29.84,10.0,SE,4.6,-,N/A,,Scattered Clouds,130,2013-07-20 20:53:00
4:53 PM,88.0,64.9,46,29.83,10.0,East,19.6,25.3,N/A,,Mostly Cloudy,90,2013-07-20 21:53:00
5:53 PM,88.0,64.0,45,29.81,10.0,ESE,17.3,-,N/A,,Partly Cloudy,110,2013-07-20 22:53:00
6:53 PM,84.9,64.0,49,29.83,10.0,ESE,17.3,-,N/A,,Clear,110,2013-07-20 23:53:00
7:53 PM,82.9,64.0,53,29.82,10.0,ESE,11.5,-,N/A,,Clear,120,2013-07-21 00:53:00
8:53 PM,79.0,64.9,62,29.83,10.0,SE,9.2,-,N/A,,Clear,140,2013-07-21 01:53:00
9:53 PM,75.9,62.1,62,29.86,10.0,ENE,11.5,67.9,N/A,,Clear,70,2013-07-21 02:53:00
10:53 PM,73.0,62.1,68,29.89,10.0,ESE,5.8,-,N/A,,Clear,110,2013-07-21 03:53:00
11:53 PM,70.0,59.0,68,29.96,6.0,North,33.4,47.2,N/A,,Haze,10,2013-07-21 04:53:00